690  
ASHW40 PHFO 221332  
RWRHI  
 
WEATHER ROUNDUP FOR HAWAII  
NATIONAL WEATHER SERVICE HONOLULU HI  
300 AM HST SUN OCT 22 2017  
 
THIS IS AN AUTOMATED REPORT THAT HAS NOT BEEN QUALITY CONTROLLED.  
 
NOTE..."FAIR" INDICATES FEW OR NO CLOUDS BELOW 12,000 FEET WITH NO  
SIGNIFICANT WEATHER AND/OR S TO VISIBILITY
.  
 
* - THESE SITES REPORT LIMITED FIELDS  
# - BUOY DATA PROVIDED BY PACIFIC ISLANDS OCEAN OBSERVING SYSTEM.  
 
HIZ001>004-221400-  
KAUAI-NIIHAU-  
 
CITY SKY/WX TMP DP RH WIND PRES REMARKS
 
LIHUE APT MOCLDY 74 69 85 W6 30.03F  
PORT ALLEN* N/A 72 N/A N/A NE5 N/A  
POIPU* N/A 73 N/A N/A N3 N/A  
PRINCEVILLE* N/A 70 N/A N/A S2 N/A  
KOKOLE POINT* NOT AVBL  
MOLOAA DAIRY* N/A 73 70 88 SE2 N/A  
WAIMEA HTS* NOT AVBL  
PUU OPAE* NOT AVBL  
PUU LUA* NOT AVBL  
MAKAHA RIDGE* N/A 66 63 88 CALM N/A  

 
 
HIZ005>011-221400-  
OAHU-  
 
CITY SKY/WX TMP DP RH WIND PRES REMARKS
 
HONOLULU PTCLDY 75 67 76 NW3 30.00F  
KALAELOA CLEAR 73 66 78 NE3 30.01F  
KANEOHE MCB PTCLDY 78 71 79 CALM 29.98F  
WHEELER FIELD FAIR 67 66 97 NW5 30.00  
BELLOWS* N/A N/A N/A N/A NE8 N/A  
KAHUKU* N/A N/A N/A N/A NE5 N/A  
WHEELER* NOT AVBL  
WAIANAE HARBOR NOT AVBL  
DILLINGHAM* N/A 88 84 89 N2 N/A HX 112  
KAHUKU TRN* N/A 84 82 94 NW1G12 N/A HX 101  
KAWAILOA* N/A 70 66 88 CALM N/A  
KII* N/A 77 72 83 E10G16 N/A  
MAKUA RANGE* NOT AVBL  
OAHU FOREST NW NOT AVBL  
SCHOFIELD BRK* N/A 68 66 94 MISG N/A  
SCHOFIELD S* NOT AVBL  
WAIANAE VLY* NOT AVBL  
KUAOKALA* NOT AVBL  
HONOULIUULI* NOT AVBL  
MOKUOLOE IS* NOT AVBL  
PALEHUA* NOT AVBL  
WAIAWA PHB* NOT AVBL  

 
 
HIZ012>013-221400-  
MOLOKAI-  
 
CITY SKY/WX TMP DP RH WIND PRES REMARKS
 
MOLOKAI AIRPT CLEAR 68 67 96 NW5 30.01F  
KALAUPAPA NOT AVBL  
MAKAPULAPAI* N/A 72 66 83 SE5 N/A  
MOLOKAI 1* NOT AVBL  
PUU ALII* N/A 58 55 89 E2 N/A  

 
 
HIZ016-221400-  
KAHOOLAWE-  
 
CITY SKY/WX TMP DP RH WIND PRES REMARKS
 
KAHOOLAWE* NOT AVBL  
HAKIOAWA* N/A 71 64 79 MISG 30.42S  
HONOKANAIA* N/A 77 64 65 NE12G25 29.94S  
KANELOA* N/A 75 68 78 NE12G18 30.08S  
KEALIALALO* NOT AVBL  
LUA MAKIKA* NOT AVBL  

 
 
HIZ014>015-221400-  
LANAI-  
 
CITY SKY/WX TMP DP RH WIND PRES REMARKS
 
LANAI CITY FAIR 67 65 93 E5 30.06F  
LANAI 1* NOT AVBL  

 
 
HIZ017>028-221400-  
MAUI-  
 
CITY SKY/WX TMP DP RH WIND PRES REMARKS
 
KAHULUI CLEAR 69 64 84 SE8 29.99F  
KAPALUA-W MAUI NOT AVBL  
HANA AIRPORT NOT AVBL  
HANA* N/A 75 N/A N/A SE3 N/A  
HALEAKALA SUMM N/A 46 7 19 SW3 N/A  
MAALAEA BAY* N/A 68 N/A N/A E5 N/A  
HALEAKALA* NOT AVBL  
KAUPO GAP* NOT AVBL  
KULA 1* N/A N/A N/A N/A E3 N/A  

 
 
HIZ023>026-221400-  
BIG ISLAND OF HAWAII COAST AND LOWER SLOPES-  
 
CITY SKY/WX TMP DP RH WIND PRES REMARKS
 
KAILUA KONA NOT AVBL  
HILO MOCLDY 72 63 73 SW6 30.00F  
HONOKAA* N/A 64 N/A N/A VRB1 N/A  
KAWAIHAE MWT* N/A 73 N/A N/A SE1 N/A  
KAWAIHAE* N/A 75 N/A N/A E1 29.98F  
SOUTH POINT* N/A 73 N/A N/A N12 N/A  
UPOLU AIRPORT* NOT AVBL  
KAMUELA* N/A 57 54 88 E9 30.11S  
HAKALAU* N/A 52 41 66 SW6G12 N/A  
KALOKO-HONOKO* N/A 72 66 83 E3 29.96F  
PALI 2* N/A 64 61 88 S6G12 N/A  
KEALAKOMO* N/A 79 70 73 E12 N/A  
KAUPULEHU* NOT AVBL  
KAPAPALA* N/A 62 60 94 N3 N/A  
LOWER KAHUKU* N/A N/A N/A N/A VRB2G9 N/A  
PUHE CS* N/A 73 59 60 E3 N/A  
PUHO CS* N/A 71 62 74 E3 N/A  
PTA KEAMUKU* N/A 59 54 82 SE9 N/A  
WAIKOLOA* NOT AVBL  

 
 
HIZ027>028-221400-  
BIG ISLAND OF HAWAII INTERIOR AND SUMMMITS-  
 
CITY SKY/WX TMP DP RH WIND PRES REMARKS
 
BRADSHAW FIELD NOT AVBL  
MK VISITOR CEN N/A 48 7 18 N6 N/A  
MAUNA KEA* N/A 37 -9 13 CALM N/A  
MAUNA LOA* N/A 41 7 24 MISG N/A  
MAUNA LOA 1* NOT AVBL  
PTA KIPUKA* N/A 50 46 87 NW3 N/A  
PTA RANGE 17* N/A 54 48 82 W6G12 N/A  
PTA WEST* N/A 54 50 87 SE12 N/A  
NENE CABIN* N/A 48 41 76 N6 N/A  
AHUMOA* NOT AVBL  
PTA PORTABLE* NOT AVBL  
PUU MALI* N/A 54 50 87 E5 N/A  

 
 
HIC003-221400-  
NORTHWEST ISLANDS-  
 
CITY SKY/WX TMP DP RH WIND PRES REMARKS
 
MIDWAY ISLAND CLEAR 79 73 83 W12 30.03F  
MIDWAY NOS* N/A 79 N/A N/A MISG 30.01S  
FRENCH FRIGATE NOT AVBL  

 
 
PHZ110>124-180-221400-  
BUOY REPORTS  
 
STATION/POSITION TIME TEMP WIND PRES WAVE SWELL
 
AIR SEA DIR/SP/G HT/PER HT/DIR  
(UTC) (F) (DEG/KT/KT) (MB) (FT/S) (FT/D)  
BUOY 51001 1300 77 80/ 10/ 14 1017.0  
BUOY 51101 1250 78 80 60/ 10/ 12 1017.6F 7/ 8 7/100  
BUOY 51100 NOT AVBL  
BUOY 51002 1300 80 70/ 17/ 21 1013.5  
BUOY 51003 1250 80 81 50/ 12/ 14 1014.9F 7/ 9 7/ 90  
BUOY 51004 1300 80 80/ 14/ 17 1013.8  
WAIMEA BAY# 1302 78 N/A 5/ 8 2/ 10  
MOKAPU POINT# 1304 80 N/A 7/ 8 3/ 20  
LANAI# NOT AVBL  
BARBERS PT 2# NOT AVBL  
PAUWELA# NOT AVBL  
HILO# 1257 80 N/A 7/ 9 3/ 30  
KANEOHE BAY# NOT AVBL  
KANEOHE BAY 2# NOT AVBL  
HANALEI# 1252 80 N/A 7/ 8 3  
KAHULUI HARBOR 1300 75 78 10/ 5/ 6 1015.7  
HONOLULU HARBOR 1300 76 80 CALM / 1 1016.6  
PEARL HARBOR# 1300 80 N/A 2/ 5 2/150  
KILO NALU NOT AVBL  
HILO HARBOR 1300 74 80 230/ 7/ 8 1015.4  
MOKUOLOE 1236 76 79 250/ 2/ 3 1016.2F  
NAWILIWILI 1300 73 260/ 4/ 5 1016.7  
WHOTS BUOY NOT AVBL  
BUOY 51028 NOT AVBL  

 
   
.....................KEY.....................................
 
 
SKY/WX - SKY CONDITIONS/PRESENT WEATHER  
TMP - TEMPERATURE IN FAHRENHEIT  
DWPT - DEWPOINT IN FAHRENHEIT  
RH - RELATIVE HUMIDITY IN PERCENT  
WIND - DIRECTION AND SPEED /MPH FOR ISLANDS...KTS FOR BUOYS/  
PRES - MEAN SEA LEVEL PRESSURE IN INCHES OF HG  
VSB - VISIBILITY IN MILES  
HX - HEAT INDEX  
WCI - WIND CHILL INDEX  
VRB - VARIABLE WIND DIRECTION  
N/A - NOT AVAILABLE  
 
 
CLICK HERE TO GO TO PREVIOUS BULLETINS.

The Nexlab HI Page Main Text Page